This demonstration page uses our WeatherBlox Daily Observations layout. Learn more.

Left ArrowRight Arrow

44.89941, -97.11507

Hourly Observations for June 20, 2016

Temp ( °F °C ) Dew Point ( °F °C ) Humidity (%) Winds ( mph kmh ) Pressure ( in mb ) Visibility ( mi km ) Precip ( " mm )
12:53 am 00:53 Clear 71 21.7 42 5.6 35 35 N 12 19 30.04 1017 10 16 0.00 0.00
1:53 am 01:53 Clear 67 19.4 44 6.7 44 44 N 10 17 30.08 1019 10 16 0.00 0.00
2:53 am 02:53 Clear 64 17.8 46 7.8 52 52 NNW 9 15 30.10 1019 10 16 0.00 0.00
3:53 am 03:53 Clear 62 16.7 48 8.9 60 60 N 9 15 30.11 1020 10 16 0.00 0.00
4:53 am 04:53 Clear 61 16.1 49 9.4 65 65 NNW 7 11 30.13 1020 10 16 0.00 0.00
5:53 am 05:53 Sunny 59 15 49 9.4 69 69 NNW 5 7 30.15 1021 10 16 0.00 0.00
6:53 am 06:53 Mostly Cloudy 64 17.8 51 10.6 63 63 NW 9 15 30.16 1021 10 16 0.00 0.00
7:53 am 07:53 Sunny 68 20 51 10.6 55 55 NNW 14 22 30.17 1022 10 16 0.00 0.00
8:53 am 08:53 Sunny 71 21.7 50 10 47 47 NNW 14 22 30.19 1022 10 16 0.00 0.00
9:53 am 09:53 Sunny 73 22.8 48 8.9 41 41 NNW 14 22 30.21 1023 10 16 0.00 0.00
10:53 am 10:53 Mostly Sunny 74 23.3 47 8.3 38 38 NW 12 19 30.22 1023 10 16 0.00 0.00
11:53 am 11:53 Sunny 74 23.3 47 8.3 38 38 NW 16 26 30.22 1023 10 16 0.00 0.00
12:53 pm 12:53 Sunny 78 25.6 47 8.3 33 33 WNW 14 22 30.22 1023 10 16 0.00 0.00
1:53 pm 13:53 Sunny 78 25.6 43 6.1 29 29 NW 17 28 30.21 1023 10 16 0.00 0.00
2:53 pm 14:53 Sunny 78 25.6 44 6.7 30 30 WNW 13 20 30.20 1023 10 16 0.00 0.00
3:53 pm 15:53 Sunny 80 26.7 42 5.6 26 26 WNW 13 20 30.18 1022 10 16 0.00 0.00
4:53 pm 16:53 Sunny 80 26.7 42 5.6 26 26 NW 16 26 30.16 1022 10 16 0.00 0.00
5:53 pm 17:53 Sunny 78 25.6 41 5 27 27 NW 14 22 30.16 1021 10 16 0.00 0.00
6:53 pm 18:53 Sunny 77 25 43 6.1 30 30 NW 10 17 30.14 1021 10 16 0.00 0.00
7:53 pm 19:53 Sunny 75 23.9 44 6.7 33 33 NNW 12 19 30.14 1021 10 16 0.00 0.00
8:53 pm 20:53 Sunny 68 20 46 7.8 45 45 N 7 11 30.14 1021 10 16 0.00 0.00
9:53 pm 21:53 Clear 65 18.3 45 7.2 49 49 Calm 30.15 1021 10 16 0.00 0.00
10:53 pm 22:53 Clear 64 17.8 46 7.8 52 52 Calm 30.16 1021 10 16 0.00 0.00
11:53 pm 23:53 Clear 61 16.1 47 8.3 60 60 Calm 30.15 1021 10 16 0.00 0.00

Powered by AerisWeather